Flag for U.S.A. Weather past 2 weeks in Chattanooga, Tennessee, U.S.A.

Now
75 °F

Thunderstorms. Broken clouds.


Feels Like: 76 °F
Forecast: 72 / 93 °F
Wind: No wind

Location: Lovell Field

Current Time: Aug 20, 2014 at 9:41:35 PM

Latest Report: Aug 20, 2014 at 9:03 PM


Visibility: 10 mi

Pressure: 30.14 "Hg

Humidity: 79%

Dew point: 68 °F

Location of ChattanoogaLocation

Historic Weather in Chattanooga — Graph

°F

Chattanooga temperature yesterday

Maximum temperature yesterday: 90 °F (at 5:53 PM)
Minimum temperature yesterday: 72 °F (at 12:53 AM)
Average temperature yesterday: 80 °F

Past Weeks' High & Low Weather Summary

 TemperatureHumidityPressure
High95 °F (Aug 7, 3:53 PM)93% (Aug 19, 12:53 AM)30.09 "Hg (Aug 19, 12:53 AM)
Low62 °F (Aug 14, 4:53 AM)32% (Aug 15, 1:53 PM)29.84 "Hg (Aug 12, 3:53 PM)
Average77 °F71%29.97 "Hg
* Reported Aug 5 7:53 PM — Aug 20 7:53 PM, Chattanooga, Weather by CustomWeather, © 2014

Note: Actual official high and low records may vary slightly from our data, if they occured in-between our weather recording intervals... More about our weather records

Advertising

Chattanooga weather history for previous 24 hours

 ConditionsComfort  
Time TempWeatherWind HumidityBarometerVisibility
7:53 PM
Aug 20
75 °FLight rain. Cloudy.6 mph79%30.07 "Hg10 mi
6:53 PM76 °FCloudy.5 mph77%30.01 "Hg10 mi
5:53 PM75 °FStrong thunderstorms. Fog.22 mph64%30.05 "Hg4 mi
4:53 PM94 °FBroken clouds.14 mph46%29.95 "Hg10 mi
3:53 PM93 °FScattered clouds.7 mph49%29.96 "Hg10 mi
2:53 PM93 °FScattered clouds.10 mph50%29.98 "Hg10 mi
1:53 PM91 °FScattered clouds.7 mph56%30.01 "Hg10 mi
12:53 PM88 °FScattered clouds.3 mph63%30.02 "Hg10 mi
11:53 AM87 °FPartly sunny.6 mph63%30.02 "Hg10 mi
10:53 AM85 °FScattered clouds.No wind68%30.01 "Hg10 mi
9:53 AM81 °FScattered clouds.3 mph74%30.00 "Hg10 mi
8:53 AM76 °FScattered clouds.No wind85%30.00 "Hg9 mi
7:53 AM74 °FPassing clouds.No wind88%29.98 "Hg9 mi
6:53 AM73 °FPassing clouds.No wind88%29.96 "Hg9 mi
5:53 AM73 °FPassing clouds.No wind90%29.94 "Hg9 mi
4:53 AM73 °FPassing clouds.No wind90%29.92 "Hg8 mi
3:53 AM74 °FClear.No wind88%29.91 "Hg9 mi
2:53 AM75 °FPassing clouds.5 mph85%29.92 "Hg10 mi
1:53 AM75 °FPassing clouds.No wind88%29.93 "Hg10 mi
12:53 AM76 °FPassing clouds.5 mph85%29.92 "Hg10 mi
11:53 PM
Aug 19
78 °FClear.No wind79%29.92 "Hg10 mi
10:53 PM77 °FPassing clouds.No wind82%29.91 "Hg10 mi
9:53 PM80 °FPassing clouds.No wind71%29.90 "Hg10 mi
Weather by CustomWeather, © 2014

See weather overviewHow to use our weather pages